[[{"header":{"parameterUnit":"m.s-1","parameterCategory":2,"la1":30.2991,"la2":30.254,"lo1":-89.0895,"lo2":-89.0444,"dy":0.0017,"dx":0.0017,"nx":28,"ny":28,"refTime":"2025-06-09T21:00:00:Z","depth":"0","parameterNumber":2,"parameterNumberName":"U-component_of_CURRENTS"},"data":[0,0,0,0,0,0,0,0,0,0,0,0,0,0,0,0,0,0,0,0,0,0,0,0,0,0,0,0,0,0,0,0,0,0,0,0,0,0,0,0,0,0,0,0,0,0,0,0,0,0,0,0,0,0,0,0,0,0,0.3316,0.3316,0,0.3271,0.3271,0.327,0.3234,0.3234,0.3234,0.3234,0.3205,0.3204,0.3203,0,0,0,0,0,0,0,0,0,0,0,0,0,0.332,0.3321,0.3316,0.3316,0.3315,0.3271,0.3271,0.327,0.3234,0.3234,0.3234,0.3234,0.3205,0.3204,0.3203,0,0,0,0,0,0,0,0,0,0,0,0,0,0.33,0.3321,0.3316,0.3294,0.3291,0.3271,0.3271,0.327,0.3234,0.3234,0.3234,0.3233,0.3205,0.3204,0.3203,0.3204,0,0,0.3201,0.32,0,0,0,0,0,0,0,0,0.3301,0.33,0.3297,0.3295,0.3292,0.3259,0.3261,0.3249,0.3234,0.3254,0.3234,0.3233,0.3226,0.3223,0.3213,0.3203,0.3201,0.3201,0.32,0.32,0.3199,0,0,0,0,0,0,0,0.3303,0.3301,0.3297,0.3297,0.3294,0.3268,0.3265,0.3258,0.3241,0.3252,0.325,0.3248,0.3224,0.3214,0.3212,0.3201,0.3201,0.32,0.3199,0.3199,0.3483,0.3491,0,0,0,0,0,0,0.3315,0.3303,0.3298,0.3295,0.3298,0.3269,0.3265,0.3269,0.3241,0.3237,0.3248,0.3246,0.3215,0.3213,0.3211,0.341,0.32,0.3199,0.3198,0.3475,0.3485,0.3494,0,0,0,0,0,0,0.3315,0.3315,0.33,0.3299,0.3295,0.327,0.3274,0.3268,0.3281,0.3238,0.3233,0.327,0.3215,0.3212,0.3269,0.34,0.3198,0.3198,0.3466,0.3478,0.3489,0.3679,0,0,0,0,0,0,0.3316,0.3316,0.3341,0.33,0.3296,0.3343,0.3274,0.3268,0.328,0.3277,0.3254,0.325,0.3215,0.3271,0.3268,0.3396,0.3197,0.3455,0.3471,0.3485,0.3662,0.3696,0.3725,0,0,0,0,0,0.3316,0.3366,0.3342,0.3343,0.3326,0.3347,0.3345,0.3321,0.3282,0.3324,0.3314,0.3252,0.3369,0.3275,0.327,0.34,0.3448,0.3467,0.3484,0.3648,0.3689,0.3724,0,0,0,0,0,0,0.3395,0.3365,0.3339,0.338,0.3383,0.3343,0.3377,0.3342,0.336,0.3361,0.3304,0.3302,0.344,0.3393,0.3291,0.3544,0.3419,0.3437,0.3547,0.3584,0.3615,0.365,0.3196,0,0,0,0,0,0.3418,0.3445,0.3413,0.3454,0.3457,0.3415,0.3421,0.3404,0.3402,0.3407,0.3397,0.3424,0.3509,0.3516,0.358,0.3649,0.363,0.3757,0.3788,0.3814,0.3852,0.3924,0.3963,0.3553,0.3553,0.3553,0,0,0.3464,0.345,0.3467,0.3473,0.3464,0.3521,0.3421,0.3454,0.3526,0.3403,0.3512,0.3537,0.3567,0.3701,0.3757,0.3663,0.3928,0.3837,0.3858,0.3882,0.3947,0.3986,0.402,0.3566,0.3563,0.3561,0,0,0.3582,0.3552,0.362,0.3633,0.3637,0.3616,0.3635,0.3622,0.3646,0.3731,0.3718,0.3819,0.3872,0.3948,0.3986,0.4225,0.412,0.4249,0.4383,0.4454,0.4486,0.4514,0.4541,0.4569,0.4225,0.4226,0.4226,0,0.3641,0.3696,0.3651,0.3725,0.3735,0.3673,0.3745,0.3788,0.3807,0.3833,0.3813,0.3987,0.4022,0.4195,0.4312,0.4298,0.4277,0.4215,0.4486,0.4514,0.4539,0.456,0.4589,0.4237,0.4236,0.4235,0.4234,0,0.381,0.3851,0.3896,0.3954,0.3978,0.4025,0.4046,0.4097,0.4097,0.4116,0.4282,0.4338,0.4415,0.4494,0.4477,0.4695,0.4606,0.4535,0.4365,0.459,0.46,0.4626,0.4253,0.4249,0.4246,0.4243,0,0,0.3918,0.3994,0.4004,0.403,0.4077,0.4096,0.4235,0.4299,0.435,0.4454,0.4543,0.4774,0.4741,0.4794,0.4794,0.4886,0.508,0.4787,0.4785,0.477,0.5191,0.5127,0.5148,0.5012,0.5018,0.5023,0.5122,0,0.4046,0.418,0.419,0.4308,0.4355,0.4337,0.4441,0.4503,0.4546,0.4633,0.4743,0.4847,0.487,0.4888,0.5012,0.5074,0.516,0.5058,0.5016,0.5016,0.4895,0.5182,0.4945,0.5013,0.5147,0.5151,0.5154,0,0.4193,0.424,0.4361,0.4398,0.4414,0.4476,0.4525,0.4617,0.4735,0.477,0.4891,0.493,0.5147,0.5092,0.5331,0.5241,0.5259,0.5293,0.5294,0.519,0.5006,0.4819,0.5055,0.4908,0.5193,0.519,0.5187,0,0.4229,0.4343,0.4409,0.4437,0.4505,0.4531,0.4552,0.464,0.4683,0.4831,0.4864,0.5081,0.5162,0.5294,0.5409,0.5355,0.5612,0.5515,0.5476,0.5466,0.5244,0.5207,0.5299,0.5674,0.5673,0.5673,0.5673,0,0.432,0.4366,0.4413,0.4451,0.4475,0.4526,0.4563,0.4618,0.4705,0.4749,0.4903,0.4982,0.5214,0.5361,0.5453,0.5583,0.5642,0.5588,0.5533,0.5308,0.5277,0.5116,0.5069,0.5677,0.5676,0.5675,0.5675,0,0.4326,0.4387,0.444,0.4492,0.449,0.4491,0.45,0.4525,0.4626,0.4692,0.4735,0.4948,0.5143,0.5339,0.5552,0.5609,0.5592,0.573,0.5447,0.5363,0.5197,0.5169,0.5093,0.4956,0.5741,0.574,0.574,0,0.4333,0.4375,0.4415,0.4391,0.439,0.4392,0.4372,0.4459,0.4473,0.4647,0.4664,0.4888,0.5002,0.5331,0.5497,0.5669,0.551,0.5517,0.5428,0.5247,0.5175,0.4992,0.4868,0.5194,0.519,0.5186,0.5183,0,0.431,0.4326,0.4343,0.4302,0.427,0.4233,0.4216,0.4223,0.4327,0.44,0.4495,0.4613,0.4925,0.5054,0.5315,0.538,0.5267,0.5443,0.533,0.4878,0.4609,0.4424,0.5041,0.5149,0.5152,0.5155,0.5157,0.5158,0.4244,0.4218,0.4233,0.4168,0.4128,0.4042,0.3973,0.3995,0.4011,0.4072,0.4273,0.4378,0.4636,0.4989,0.5046,0.5,0.503,0.4877,0.4893,0.4749,0.4538,0.51,0.5098,0.5101,0.5104,0.5106,0.5108,0,0.4136,0.412,0.4076,0.3991,0.3882,0.3906,0.3834,0.3754,0.3719,0.385,0.3935,0.41,0.4247,0.4434,0.4568,0.4482,0.4286,0.4367,0.404,0.3974,0.4531,0.4426,0.4185,0.4185,0.4185,0.4185,0.4186,0.4186,0.4083,0.4017,0.399,0.3779,0.369,0.3505,0.3434,0.3366,0.3402,0.3395,0.3453,0.3612,0.3931,0.4186,0.4135,0.4035,0.3764,0.3613,0.3659,0.4032,0.4078,0.4121,0.4012,0.3688,0.3688,0.2869,0.2864,0.2859]},{"header":{"parameterUnit":"m.s-1","parameterCategory":2,"la1":30.2991,"la2":30.254,"lo1":-89.0895,"lo2":-89.0444,"dy":0.0017,"dx":0.0017,"nx":28,"ny":28,"refTime":"2025-06-09T21:00:00:Z","depth":"0","parameterNumber":3,"parameterNumberName":"V-component_of_CURRENTS"},"data":[0,0,0,0,0,0,0,0,0,0,0,0,0,0,0,0,0,0,0,0,0,0,0,0,0,0,0,0,0,0,0,0,0,0,0,0,0,0,0,0,0,0,0,0,0,0,0,0,0,0,0,0,0,0,0,0,0,0,0.0437,0.0436,0,0.035,0.0349,0.0348,0.0252,0.0251,0.0249,0.0248,0.013,0.0128,0.0126,0,0,0,0,0,0,0,0,0,0,0,0,0,0.0481,0.0481,0.0437,0.0436,0.0435,0.035,0.0349,0.0348,0.0253,0.0251,0.0249,0.0247,0.013,0.0128,0.0126,0,0,0,0,0,0,0,0,0,0,0,0,0,0.0437,0.0481,0.0438,0.0375,0.0368,0.035,0.0349,0.0348,0.0253,0.0251,0.0248,0.0246,0.0131,0.0128,0.0126,0.016,0,0,0.0119,0.0117,0,0,0,0,0,0,0,0,0.044,0.0436,0.0386,0.0379,0.0372,0.0307,0.0321,0.0282,0.0254,0.03,0.0248,0.0245,0.0186,0.0179,0.0172,0.0154,0.0149,0.0118,0.0117,0.0116,0.0115,0,0,0,0,0,0,0,0.0443,0.0439,0.0405,0.0384,0.0376,0.0337,0.0329,0.0313,0.0259,0.0295,0.0288,0.0275,0.0182,0.0175,0.0169,0.0147,0.0118,0.0116,0.0115,0.0114,0.0237,0.0241,0,0,0,0,0,0,0.0454,0.0442,0.0408,0.0402,0.0397,0.0338,0.0329,0.0333,0.026,0.0246,0.0277,0.027,0.018,0.0172,0.0164,0.0279,0.0116,0.0114,0.0112,0.0232,0.0238,0.0243,0,0,0,0,0,0,0.0455,0.0452,0.0412,0.0417,0.0408,0.034,0.0345,0.0332,0.0325,0.0245,0.0231,0.0281,0.0178,0.0167,0.019,0.0271,0.0112,0.011,0.0227,0.0234,0.0241,0.0459,0,0,0,0,0,0,0.0457,0.0454,0.047,0.0419,0.0409,0.0431,0.0346,0.0332,0.0319,0.031,0.0245,0.0231,0.0175,0.0194,0.0187,0.0264,0.0108,0.0221,0.023,0.0238,0.0445,0.0472,0.0495,0,0,0,0,0,0.0459,0.0507,0.0472,0.0467,0.043,0.0434,0.0428,0.037,0.0322,0.0349,0.0312,0.0233,0.0245,0.0196,0.0187,0.0265,0.0216,0.0227,0.0238,0.0434,0.0467,0.0495,0,0,0,0,0,0,0.0551,0.05,0.046,0.0493,0.0471,0.0417,0.0431,0.0388,0.0379,0.0367,0.0286,0.0273,0.0329,0.0274,0.0221,0.0332,0.0222,0.0231,0.0375,0.0405,0.0429,0.0458,0.0106,0,0,0,0,0,0.0574,0.0585,0.0535,0.0563,0.0554,0.0493,0.0486,0.0451,0.0426,0.0417,0.0386,0.0361,0.0369,0.0365,0.0362,0.0413,0.033,0.0463,0.0488,0.0509,0.0531,0.0479,0.0499,0.0278,0.0278,0.0278,0,0,0.0619,0.0589,0.0597,0.0581,0.0551,0.0585,0.0485,0.0492,0.0544,0.041,0.0486,0.0448,0.0405,0.0475,0.0494,0.0433,0.0532,0.0523,0.0541,0.0551,0.0492,0.0512,0.0531,0.0285,0.0284,0.0283,0,0,0.0712,0.0685,0.072,0.0714,0.0682,0.0662,0.0672,0.0643,0.0653,0.0714,0.0642,0.0662,0.0668,0.0664,0.0657,0.082,0.067,0.0814,0.0955,0.0905,0.0922,0.0935,0.0859,0.0864,0.0821,0.0821,0.0821,0,0.0765,0.0794,0.0738,0.0772,0.0781,0.0709,0.0765,0.0788,0.0784,0.0807,0.0774,0.081,0.0772,0.0845,0.0908,0.0878,0.0798,0.0839,0.0934,0.0946,0.0956,0.0873,0.0876,0.0833,0.0831,0.083,0.0829,0,0.0876,0.0901,0.0929,0.0945,0.0964,0.1001,0.1007,0.1053,0.1052,0.1053,0.1134,0.1104,0.1108,0.1121,0.1065,0.1137,0.104,0.097,0.0849,0.099,0.0896,0.0894,0.085,0.0845,0.0842,0.0839,0,0,0.0976,0.1001,0.1009,0.1033,0.105,0.1079,0.1188,0.1247,0.1307,0.1344,0.1425,0.1471,0.1412,0.1404,0.134,0.1318,0.1327,0.1185,0.1176,0.1094,0.1182,0.1183,0.1178,0.1248,0.1249,0.125,0.1085,0,0.107,0.1165,0.1159,0.1269,0.1311,0.13,0.1404,0.1454,0.1489,0.1564,0.1558,0.1607,0.1533,0.1528,0.1509,0.1382,0.1333,0.1376,0.1071,0.1062,0.1032,0.1182,0.1062,0.0911,0.1083,0.1082,0.1082,0,0.1166,0.1212,0.1326,0.1399,0.1419,0.1488,0.1593,0.1675,0.1753,0.1779,0.1818,0.1785,0.1814,0.1704,0.1577,0.1595,0.1411,0.1297,0.1286,0.1211,0.1063,0.0799,0.09,0.0618,0.1078,0.1078,0.1078,0,0.1233,0.1328,0.1419,0.1445,0.153,0.159,0.1647,0.1731,0.1814,0.1897,0.1951,0.1951,0.1961,0.1792,0.1603,0.1562,0.1421,0.1314,0.1136,0.113,0.0936,0.0914,0.0718,0.1181,0.1181,0.1182,0.1182,0,0.1318,0.1385,0.1452,0.1501,0.1614,0.1652,0.1781,0.1839,0.1945,0.205,0.2047,0.213,0.1978,0.1889,0.166,0.1442,0.1453,0.1201,0.1115,0.1013,0.1001,0.067,0.056,0.1175,0.1177,0.1178,0.1179,0,0.1353,0.1403,0.1498,0.1602,0.1638,0.1713,0.1846,0.194,0.2032,0.2172,0.2207,0.2265,0.2167,0.1981,0.1718,0.153,0.1132,0.1176,0.1078,0.0989,0.0597,0.0506,0.0272,0.0166,0.097,0.0969,0.0969,0,0.1377,0.1427,0.155,0.16,0.1639,0.1753,0.1837,0.1963,0.2071,0.2255,0.2331,0.2324,0.2338,0.2022,0.1683,0.1318,0.1055,0.0948,0.0881,0.0611,0.0441,0.0374,0.0297,0.0675,0.0672,0.067,0.0668,0,0.14,0.1437,0.1512,0.1622,0.171,0.1829,0.1962,0.2075,0.2239,0.2369,0.2524,0.2559,0.2313,0.1992,0.1559,0.1256,0.0767,0.0893,0.0611,0.024,0.0148,-0.0009,0.073,0.0647,0.065,0.0651,0.0652,0.0653,0.1396,0.1442,0.1539,0.1639,0.1748,0.1899,0.2011,0.2176,0.2368,0.2593,0.2629,0.2698,0.2196,0.1636,0.1284,0.0517,0.0612,0.022,0.0136,0.0098,0.0006,0.0741,0.0584,0.0586,0.0587,0.0588,0.0589,0,0.1378,0.1446,0.1545,0.1686,0.1808,0.1873,0.2089,0.2227,0.2448,0.2638,0.277,0.2493,0.1871,0.1247,0.0302,-0.0167,-0.0355,-0.0467,-0.0666,-0.0701,-0.01,-0.0103,-0.0413,-0.0413,-0.0412,-0.0412,-0.0412,-0.0411,0.1369,0.1451,0.1515,0.1704,0.1809,0.1989,0.2115,0.2328,0.2503,0.2693,0.2707,0.2711,0.2149,0.0468,-0.0653,-0.0912,-0.1248,-0.1323,-0.1389,-0.1086,-0.1031,-0.0979,-0.1011,-0.1507,-0.1508,-0.2028,-0.2034,-0.2038]}],[{"header":{"parameterUnit":"m.s-1","parameterCategory":2,"la1":30.2991,"la2":30.254,"lo1":-89.0895,"lo2":-89.0444,"dy":0.0017,"dx":0.0017,"nx":28,"ny":28,"refTime":"2025-06-09T21:00:00:Z","depth":"2","parameterNumber":2,"parameterNumberName":"U-component_of_CURRENTS"},"data":[0,0,0,0,0,0,0,0,0,0,0,0,0,0,0,0,0,0,0,0,0,0,0,0,0,0,0,0,0,0,0,0,0,0,0,0,0,0,0,0,0,0,0,0,0,0,0,0,0,0,0,0,0,0,0,0,0,0,0.3015,0.3016,0,0.2984,0.2982,0.2981,0.2972,0.2973,0.2975,0.2976,0.2963,0.2961,0.2959,0,0,0,0,0,0,0,0,0,0,0,0,0,0.2981,0.2981,0.3015,0.3016,0.3017,0.2984,0.2982,0.298,0.2971,0.2973,0.2975,0.2977,0.2963,0.2961,0.2959,0,0,0,0,0,0,0,0,0,0,0,0,0,0.2964,0.2981,0.3015,0.3019,0.302,0.2984,0.2982,0.298,0.2971,0.2973,0.2975,0.2977,0.2964,0.2961,0.2959,0.29,0,0,0.2951,0.295,0,0,0,0,0,0,0,0,0.2965,0.2964,0.3017,0.3019,0.302,0.2996,0.2966,0.2959,0.2971,0.2975,0.2976,0.2978,0.2983,0.2979,0.2948,0.2899,0.2899,0.2951,0.2949,0.2948,0.2947,0,0,0,0,0,0,0,0.2967,0.2965,0.2989,0.3019,0.302,0.2993,0.2992,0.2963,0.2957,0.2975,0.2977,0.2995,0.2982,0.295,0.2948,0.2898,0.2951,0.2949,0.2947,0.2946,0.312,0.3126,0,0,0,0,0,0,0.3001,0.2966,0.299,0.2989,0.3013,0.2994,0.2992,0.299,0.2957,0.2958,0.2993,0.2995,0.2954,0.2951,0.2948,0.3134,0.2948,0.2946,0.2944,0.3114,0.3121,0.3128,0,0,0,0,0,0,0.2999,0.3002,0.2992,0.2989,0.2988,0.2994,0.2991,0.2989,0.3017,0.2973,0.2972,0.3033,0.2955,0.2951,0.3002,0.3124,0.2945,0.2942,0.3107,0.3116,0.3125,0.3341,0,0,0,0,0,0,0.2998,0.3001,0.3017,0.2991,0.299,0.3043,0.299,0.2987,0.3027,0.303,0.3005,0.3003,0.2957,0.3007,0.3,0.3117,0.294,0.3099,0.3111,0.3122,0.3326,0.3357,0.3383,0,0,0,0,0,0.2996,0.3029,0.3017,0.3021,0.3009,0.3047,0.3045,0.3045,0.3028,0.3069,0.3058,0.3006,0.3078,0.3008,0.2999,0.3118,0.3093,0.3108,0.3121,0.3314,0.3351,0.3382,0,0,0,0,0,0,0.3044,0.3031,0.3018,0.305,0.3078,0.3053,0.3084,0.3078,0.309,0.3099,0.3043,0.3042,0.3137,0.3101,0.3026,0.3213,0.3093,0.3106,0.3244,0.3278,0.3305,0.3297,0.2938,0,0,0,0,0,0.3055,0.3082,0.307,0.3118,0.3117,0.3102,0.3118,0.3127,0.3134,0.3141,0.3123,0.3134,0.3173,0.3205,0.3206,0.3283,0.3225,0.3373,0.3401,0.3425,0.3419,0.3417,0.3442,0.3173,0.3173,0.3173,0,0,0.31,0.3099,0.3119,0.3132,0.313,0.3192,0.3116,0.3172,0.3261,0.3137,0.3235,0.3209,0.3212,0.3312,0.3357,0.3307,0.3488,0.3442,0.3462,0.3443,0.3433,0.3458,0.3481,0.3183,0.3181,0.318,0,0,0.3205,0.3184,0.3229,0.3244,0.3275,0.3292,0.3329,0.3325,0.3355,0.3454,0.3392,0.343,0.35,0.35,0.3524,0.3707,0.3621,0.3752,0.3899,0.3899,0.3919,0.3935,0.3949,0.3965,0.3785,0.3786,0.3786,0,0.326,0.3274,0.3264,0.3305,0.3319,0.3356,0.3405,0.3481,0.3517,0.3517,0.3547,0.3577,0.3599,0.3664,0.3782,0.3767,0.3753,0.3762,0.3929,0.3944,0.3957,0.3967,0.3981,0.3798,0.3796,0.3795,0.3794,0,0.3377,0.3382,0.3414,0.3477,0.353,0.3572,0.3655,0.3716,0.3775,0.3815,0.3878,0.3874,0.3899,0.3943,0.3954,0.406,0.4018,0.3942,0.3826,0.3996,0.3998,0.4009,0.3815,0.3811,0.3807,0.3804,0,0,0.339,0.3477,0.3454,0.3447,0.3575,0.3592,0.3788,0.3872,0.3916,0.4036,0.4082,0.4207,0.4173,0.4196,0.4162,0.4189,0.4339,0.4159,0.4153,0.4144,0.4364,0.4068,0.405,0.4292,0.4294,0.4296,0.4344,0,0.3429,0.3461,0.3552,0.3618,0.3589,0.3698,0.3834,0.395,0.4064,0.4151,0.4204,0.4266,0.4295,0.4293,0.4362,0.4337,0.4371,0.4333,0.4224,0.4221,0.391,0.4053,0.3849,0.385,0.4354,0.4356,0.4357,0,0.3373,0.34,0.3438,0.3491,0.3497,0.3652,0.3729,0.3861,0.4059,0.4137,0.4258,0.4318,0.447,0.4426,0.4518,0.4504,0.4486,0.4434,0.4433,0.407,0.3942,0.3755,0.3849,0.4373,0.4372,0.4371,0.437,0,0.311,0.3235,0.3241,0.3267,0.344,0.3527,0.3659,0.3836,0.3901,0.414,0.4206,0.4387,0.4451,0.4518,0.4585,0.4575,0.4605,0.4557,0.4236,0.4216,0.397,0.392,0.4546,0.4546,0.4546,0.4546,0.4546,0,0.2925,0.2907,0.3141,0.3117,0.3224,0.3355,0.3467,0.3638,0.3814,0.3895,0.4183,0.4219,0.4473,0.4557,0.4615,0.4493,0.4656,0.4269,0.4201,0.4045,0.4004,0.4377,0.4356,0.4548,0.4547,0.4547,0.4547,0,0.2629,0.2715,0.2772,0.2996,0.3098,0.3176,0.3442,0.3478,0.3661,0.3789,0.3879,0.4149,0.4258,0.4423,0.4497,0.443,0.438,0.4252,0.4065,0.3968,0.3997,0.3989,0.3944,0.3934,0.3925,0.3918,0.3912,0,0.2487,0.2458,0.2734,0.28,0.2968,0.3113,0.3211,0.3434,0.3493,0.3677,0.3719,0.388,0.398,0.4022,0.4008,0.4026,0.4119,0.3671,0.356,0.3993,0.3933,0.3939,0.3942,0.3389,0.3379,0.3371,0.3364,0,0.2286,0.2407,0.2493,0.2646,0.2797,0.2954,0.3125,0.3142,0.3324,0.3421,0.3519,0.3601,0.3662,0.3592,0.3534,0.3481,0.3689,0.3483,0.4026,0.3508,0.3453,0.3399,0.3425,0.3292,0.33,0.3305,0.3309,0.3312,0.2199,0.2246,0.2337,0.2524,0.2662,0.278,0.2857,0.2965,0.3026,0.313,0.3195,0.3218,0.3262,0.307,0.2996,0.2939,0.3118,0.2981,0.3015,0.3056,0.2917,0.2842,0.2547,0.255,0.2552,0.2554,0.2556,0,0.2087,0.2135,0.2203,0.2378,0.249,0.2691,0.278,0.2737,0.2803,0.2874,0.2931,0.2589,0.2518,0.2597,0.2425,0.2328,0.2425,0.2203,0.238,0.2449,0.2511,0.2354,0.183,0.1828,0.1826,0.1824,0,0,0.1995,0.1972,0.2029,0.2169,0.2377,0.2509,0.259,0.2543,0.2501,0.2347,0.2357,0.2442,0.2508,0.2151,0.2085,0.1963,0.2201,0.1877,0.2463,0.2745,0.2805,0.2954,0.2785,0,0,0,0,0]},{"header":{"parameterUnit":"m.s-1","parameterCategory":2,"la1":30.2991,"la2":30.254,"lo1":-89.0895,"lo2":-89.0444,"dy":0.0017,"dx":0.0017,"nx":28,"ny":28,"refTime":"2025-06-09T21:00:00:Z","depth":"2","parameterNumber":3,"parameterNumberName":"V-component_of_CURRENTS"},"data":[0,0,0,0,0,0,0,0,0,0,0,0,0,0,0,0,0,0,0,0,0,0,0,0,0,0,0,0,0,0,0,0,0,0,0,0,0,0,0,0,0,0,0,0,0,0,0,0,0,0,0,0,0,0,0,0,0,0,0.0189,0.0188,0,0.0094,0.0093,0.0091,0.0033,0.0034,0.0034,0.0034,-0.0072,-0.0075,-0.0078,0,0,0,0,0,0,0,0,0,0,0,0,0,0.0173,0.0174,0.0189,0.0188,0.0188,0.0094,0.0093,0.0091,0.0033,0.0034,0.0034,0.0035,-0.0071,-0.0075,-0.0079,0,0,0,0,0,0,0,0,0,0,0,0,0,0.0133,0.0174,0.0189,0.0153,0.0149,0.0095,0.0092,0.009,0.0033,0.0034,0.0034,0.0035,-0.007,-0.0075,-0.0079,-0.0118,0,0,-0.0094,-0.0096,0,0,0,0,0,0,0,0,0.0136,0.0133,0.0159,0.0155,0.0151,0.0082,0.0048,0.0022,0.0033,0.007,0.0034,0.0035,-0.0018,-0.0027,-0.0055,-0.0123,-0.0128,-0.0094,-0.0097,-0.0099,-0.01,0,0,0,0,0,0,0,0.0139,0.0136,0.0145,0.0158,0.0154,0.0091,0.0087,0.0042,0.0019,0.0067,0.0064,0.0064,-0.0021,-0.005,-0.0058,-0.0129,-0.0094,-0.0098,-0.0101,-0.0103,-0.0122,-0.012,0,0,0,0,0,0,0.0171,0.014,0.0148,0.0142,0.0152,0.0093,0.0087,0.0098,0.002,0.001,0.0064,0.0062,-0.0043,-0.0052,-0.0062,-0.0013,-0.0099,-0.0103,-0.0106,-0.0124,-0.0121,-0.0119,0,0,0,0,0,0,0.0171,0.0173,0.0152,0.0143,0.0137,0.0094,0.0106,0.0096,0.0092,0.0019,0.0008,0.0074,-0.0043,-0.0055,-0.0059,-0.0021,-0.0105,-0.011,-0.0127,-0.0123,-0.012,0.002,0,0,0,0,0,0,0.0171,0.0174,0.0189,0.0146,0.0139,0.0153,0.0106,0.0094,0.0093,0.009,0.0023,0.0012,-0.0043,-0.0051,-0.0063,-0.0029,-0.0113,-0.013,-0.0125,-0.0121,0.0013,0.0028,0.0041,0,0,0,0,0,0.0171,0.0194,0.0191,0.0192,0.0164,0.0155,0.0145,0.011,0.0094,0.0105,0.007,0.0016,-0.0032,-0.0053,-0.0068,-0.0035,-0.0132,-0.0127,-0.0121,0.0006,0.0025,0.0041,0,0,0,0,0,0,0.0209,0.019,0.0185,0.0207,0.02,0.0149,0.0143,0.013,0.0106,0.0107,0.0037,0.0024,0.0013,-0.0014,-0.0035,-0.0024,-0.0088,-0.0085,0.0014,0.0031,0.0045,0.0077,-0.0117,0,0,0,0,0,0.0225,0.024,0.0216,0.0245,0.023,0.0193,0.0184,0.0175,0.015,0.0139,0.0097,0.006,0.0017,0.0027,-0.0034,-0.0007,-0.0074,0.0009,0.0024,0.0036,0.0055,-0.0046,-0.0041,-0.0102,-0.0102,-0.0102,0,0,0.0257,0.0247,0.0261,0.0254,0.0229,0.0242,0.0187,0.0195,0.0247,0.0131,0.0169,0.0082,0.0024,0.003,0.003,0.0026,0.0028,0.0043,0.0053,0.0065,-0.0041,-0.0035,-0.003,-0.0098,-0.0099,-0.0099,0,0,0.0309,0.0307,0.0319,0.0307,0.0294,0.0294,0.0311,0.0279,0.03,0.0351,0.0241,0.0192,0.0193,0.0119,0.0097,0.0164,0.0071,0.016,0.0298,0.02,0.0203,0.0205,0.0166,0.0163,0.0211,0.0211,0.0211,0,0.0346,0.035,0.0328,0.0323,0.0322,0.033,0.0346,0.0388,0.0379,0.0389,0.0406,0.0259,0.024,0.0153,0.0232,0.0192,0.0144,0.0234,0.0216,0.0216,0.0216,0.0174,0.0169,0.0218,0.0217,0.0217,0.0216,0,0.0384,0.0385,0.0388,0.04,0.0415,0.043,0.0476,0.0493,0.0545,0.0588,0.0528,0.0435,0.0376,0.0345,0.0362,0.0316,0.0285,0.0205,0.0168,0.023,0.0183,0.0175,0.0229,0.0226,0.0224,0.0222,0,0,0.0401,0.042,0.04,0.0412,0.0443,0.046,0.0542,0.0598,0.0653,0.0654,0.0689,0.0615,0.0567,0.0535,0.0427,0.0377,0.0403,0.0367,0.0358,0.0323,0.0236,0.0102,0.0079,0.0316,0.0315,0.0314,0.0217,0,0.0411,0.0424,0.0445,0.0491,0.0482,0.051,0.0592,0.0662,0.0755,0.082,0.0722,0.0738,0.065,0.0624,0.0561,0.0441,0.0385,0.044,0.0186,0.0181,0.0045,0.0065,0.011,0.0016,0.0209,0.0208,0.0206,0,0.0343,0.0382,0.0417,0.0485,0.0488,0.0575,0.0642,0.0725,0.0831,0.09,0.0863,0.0861,0.0811,0.0735,0.0514,0.0564,0.046,0.0325,0.0315,0.0132,0.0029,-0.0023,-0.0007,0.0192,0.0193,0.0194,0.0195,0,0.0244,0.0311,0.0358,0.0374,0.0492,0.0544,0.0635,0.0741,0.0836,0.0966,0.104,0.0953,0.0942,0.0752,0.061,0.06,0.0351,0.0283,-0.0002,-0.001,-0.0053,-0.0065,0.0092,0.0093,0.0093,0.0093,0.0093,0,0.0156,0.0183,0.0339,0.0358,0.0497,0.0542,0.069,0.0774,0.0896,0.1029,0.1089,0.1079,0.0959,0.0841,0.066,0.0328,0.0385,0.0024,-0.0059,0.0002,-0.0005,0.0074,0.0073,0.0089,0.009,0.0091,0.0092,0,0.0051,0.0095,0.0194,0.037,0.0452,0.056,0.0796,0.089,0.0976,0.1127,0.1189,0.1243,0.1072,0.0858,0.059,0.0377,0.0074,-0.0083,0.0036,-0.0035,-0.022,-0.0212,-0.0375,-0.0381,-0.0386,-0.039,-0.0393,0,0.0032,0.0044,0.0264,0.0363,0.0492,0.0665,0.0796,0.0948,0.1069,0.1161,0.1239,0.117,0.1105,0.0658,0.0322,-0.0065,-0.01,-0.0307,-0.0364,-0.0211,-0.0275,-0.0259,-0.0245,-0.0324,-0.0327,-0.0329,-0.0331,0,0.0056,0.0114,0.0223,0.0423,0.06,0.0805,0.1011,0.1105,0.1233,0.1337,0.1403,0.1344,0.0948,0.0596,0.0076,-0.019,-0.0223,-0.0375,-0.0254,-0.0242,-0.0181,-0.0238,-0.0222,-0.035,-0.0348,-0.0347,-0.0346,-0.0345,0.0118,0.0208,0.0313,0.0527,0.0717,0.0931,0.1099,0.1279,0.1446,0.1591,0.1449,0.134,0.0948,0.0257,-0.0124,-0.0459,-0.0486,-0.0602,-0.0587,-0.0571,-0.0578,-0.0534,-0.0764,-0.0764,-0.0765,-0.0765,-0.0765,0,0.0198,0.027,0.0427,0.0664,0.0879,0.1005,0.124,0.1358,0.1587,0.1635,0.1647,0.1131,0.068,0.0258,-0.0273,-0.0649,-0.0581,-0.0741,-0.0558,-0.0541,-0.0525,-0.052,-0.0696,-0.0696,-0.0696,-0.0696,0,0,0.0227,0.0343,0.0424,0.0759,0.0974,0.1272,0.1426,0.1603,0.1653,0.1652,0.1594,0.134,0.0756,0.0376,-0.01,-0.0372,-0.035,-0.0418,-0.0448,-0.016,-0.0138,-0.0441,-0.0418,0,0,0,0,0]}],[{"header":{"parameterUnit":"m.s-1","parameterCategory":2,"la1":30.2991,"la2":30.254,"lo1":-89.0895,"lo2":-89.0444,"dy":0.0017,"dx":0.0017,"nx":28,"ny":28,"refTime":"2025-06-09T21:00:00:Z","depth":"4","parameterNumber":2,"parameterNumberName":"U-component_of_CURRENTS"},"data":[0,0,0,0,0,0,0,0,0,0,0,0,0,0,0,0,0,0,0,0,0,0,0,0,0,0,0,0,0,0,0,0,0,0,0,0,0,0,0,0,0,0,0,0,0,0,0,0,0,0,0,0,0,0,0,0,0,0,0.1106,0.1107,0,0.119,0.119,0.1191,0.127,0.1272,0.1273,0.1274,0.142,0.1423,0.1425,0,0,0,0,0,0,0,0,0,0,0,0,0,0.0729,0.0737,0.1106,0.1107,0.1109,0.119,0.119,0.1191,0.127,0.1272,0.1273,0.1275,0.1419,0.1422,0.1426,0,0,0,0,0,0,0,0,0,0,0,0,0,0.0858,0.074,0.1106,0.1161,0.1167,0.1189,0.119,0.1191,0.127,0.1272,0.1274,0.1276,0.1418,0.1422,0.1426,0.1409,0,0,0.1438,0.144,0,0,0,0,0,0,0,0,0.0851,0.0871,0.1151,0.1157,0.1164,0.1225,0.1111,0.1269,0.1269,0.1226,0.1274,0.1277,0.1362,0.137,0.1375,0.1416,0.1422,0.1438,0.1441,0.1442,0.1443,0,0,0,0,0,0,0,0.0842,0.0866,0.1135,0.1153,0.116,0.1084,0.1107,0.1139,0.128,0.123,0.1237,0.1252,0.1366,0.1371,0.1379,0.1424,0.1438,0.1442,0.1444,0.1446,0.1661,0.1664,0,0,0,0,0,0,0.0854,0.086,0.1132,0.1138,0.1014,0.109,0.1115,0.12,0.1278,0.1293,0.125,0.1256,0.1363,0.1375,0.1385,0.1464,0.1442,0.1446,0.1448,0.1657,0.1661,0.1665,0,0,0,0,0,0,0.0847,0.088,0.1129,0.0998,0.1026,0.1098,0.119,0.1201,0.1259,0.1294,0.1309,0.1303,0.1365,0.1379,0.1495,0.1467,0.1448,0.1451,0.1653,0.1659,0.1663,0.1563,0,0,0,0,0,0,0.0837,0.0879,0.0988,0.1003,0.1034,0.1162,0.1189,0.1201,0.1263,0.1272,0.1343,0.1355,0.1368,0.149,0.1499,0.1472,0.1454,0.1649,0.1656,0.1662,0.1562,0.1564,0.1565,0,0,0,0,0,0.0824,0.095,0.0995,0.1029,0.1171,0.1163,0.1171,0.1221,0.1264,0.1283,0.1376,0.1356,0.1536,0.1497,0.1507,0.1479,0.1646,0.1654,0.1661,0.1561,0.1563,0.1565,0,0,0,0,0,0,0.0813,0.0971,0.102,0.1185,0.1184,0.1179,0.1226,0.1247,0.1328,0.1365,0.1405,0.1425,0.1516,0.1544,0.1499,0.1575,0.1584,0.1594,0.1505,0.1507,0.1509,0.1412,0.1458,0,0,0,0,0,0.0871,0.1005,0.1076,0.1174,0.1209,0.1224,0.125,0.1263,0.1312,0.1351,0.1386,0.1464,0.1543,0.1568,0.1634,0.1667,0.1692,0.1666,0.1667,0.1667,0.1606,0.1728,0.1733,0.169,0.169,0.169,0,0,0.0834,0.0975,0.102,0.1179,0.1196,0.119,0.1245,0.1273,0.1254,0.1354,0.1381,0.1481,0.1571,0.1619,0.1656,0.1637,0.1691,0.1677,0.1675,0.1613,0.1736,0.1739,0.1742,0.1695,0.1694,0.1693,0,0,0.0775,0.1009,0.1061,0.11,0.118,0.1204,0.1223,0.1244,0.1277,0.1304,0.1405,0.1476,0.156,0.1593,0.1632,0.1684,0.172,0.1751,0.1636,0.1757,0.1759,0.1761,0.1758,0.1761,0.1721,0.1721,0.1721,0,0.0752,0.0876,0.1042,0.1081,0.1127,0.1208,0.1196,0.1212,0.1249,0.1293,0.1304,0.1463,0.1506,0.1589,0.1595,0.1663,0.1748,0.1604,0.175,0.1753,0.1757,0.1754,0.1758,0.1717,0.1717,0.1718,0.1718,0,0.0675,0.0798,0.0826,0.0942,0.0989,0.1013,0.1066,0.1113,0.1171,0.1176,0.128,0.1348,0.1462,0.1467,0.1523,0.1598,0.1652,0.1756,0.1716,0.1753,0.175,0.1755,0.1711,0.1712,0.1714,0.1715,0,0,0.0619,0.0756,0.0782,0.0834,0.0964,0.0989,0.1008,0.1075,0.1134,0.1128,0.1183,0.1234,0.1333,0.1386,0.1491,0.1498,0.1548,0.1626,0.1634,0.1565,0.1779,0.1656,0.1651,0.1744,0.1746,0.1747,0.1748,0,0.0534,0.0593,0.0691,0.0712,0.0765,0.0894,0.0923,0.0988,0.106,0.1129,0.1179,0.1279,0.1299,0.14,0.1424,0.1533,0.1572,0.1532,0.1799,0.1801,0.1646,0.1656,0.1753,0.1752,0.1753,0.1754,0.1755,0,0.0484,0.0563,0.0574,0.0725,0.0765,0.0778,0.0966,0.0991,0.1103,0.1171,0.1255,0.1344,0.1359,0.1416,0.1511,0.1527,0.1656,0.168,0.1687,0.1596,0.1691,0.1729,0.1766,0.1765,0.1764,0.1763,0.1763,0,0.0447,0.0531,0.0574,0.0609,0.0731,0.0794,0.0886,0.1011,0.1088,0.1228,0.1292,0.1373,0.1446,0.1546,0.1579,0.1626,0.1657,0.1762,0.1749,0.1739,0.1888,0.1887,0.1899,0.1899,0.1899,0.1899,0.1899,0,0.0436,0.0478,0.0568,0.0597,0.0688,0.0794,0.0909,0.1019,0.116,0.1241,0.1356,0.1415,0.1512,0.1545,0.1593,0.161,0.1713,0.1676,0.1738,0.1845,0.184,0.1889,0.1887,0.1899,0.1899,0.1899,0.1899,0,0.0394,0.0445,0.0501,0.0621,0.0668,0.0747,0.0923,0.0999,0.1159,0.1269,0.1323,0.1461,0.1501,0.152,0.1632,0.163,0.1645,0.1689,0.1672,0.1743,0.1637,0.1632,0.1632,0.1628,0.1625,0.1622,0.1619,0,0.0376,0.0392,0.05,0.054,0.06,0.0723,0.0805,0.0988,0.1065,0.1267,0.1301,0.141,0.1484,0.1454,0.1521,0.1545,0.1613,0.1595,0.1677,0.1551,0.1614,0.1614,0.1614,0.1613,0.1613,0.1612,0.1611,0,0.0327,0.0364,0.0409,0.0489,0.0569,0.0658,0.0791,0.0847,0.1049,0.117,0.1285,0.1341,0.1393,0.141,0.1445,0.1485,0.1537,0.156,0.157,0.1648,0.153,0.1595,0.1598,0.1598,0.16,0.1601,0.1602,0,0.0288,0.0306,0.0362,0.0439,0.0522,0.0595,0.0674,0.0792,0.0905,0.1136,0.115,0.1271,0.1372,0.1385,0.1385,0.1393,0.1443,0.1444,0.1462,0.1476,0.1426,0.1253,0.125,0,0,0,0,0,0.0245,0.0262,0.0314,0.0397,0.0476,0.0533,0.0665,0.0745,0.0909,0.0971,0.1085,0.1138,0.1215,0.1261,0.1251,0.1318,0.1417,0.1301,0.1419,0.153,0.1545,0.1501,0,0,0,0,0,0,0.0213,0.0248,0.0283,0.0344,0.0395,0.0482,0.0562,0.067,0.073,0.0896,0.0934,0.1071,0.1134,0.1199,0.1224,0.124,0.1298,0.1377,0.1375,0.1522,0.1535,0.1547,0.1507,0,0,0,0,0]},{"header":{"parameterUnit":"m.s-1","parameterCategory":2,"la1":30.2991,"la2":30.254,"lo1":-89.0895,"lo2":-89.0444,"dy":0.0017,"dx":0.0017,"nx":28,"ny":28,"refTime":"2025-06-09T21:00:00:Z","depth":"4","parameterNumber":3,"parameterNumberName":"V-component_of_CURRENTS"},"data":[0,0,0,0,0,0,0,0,0,0,0,0,0,0,0,0,0,0,0,0,0,0,0,0,0,0,0,0,0,0,0,0,0,0,0,0,0,0,0,0,0,0,0,0,0,0,0,0,0,0,0,0,0,0,0,0,0,0,-0.0227,-0.0227,0,-0.0283,-0.0284,-0.0285,-0.0253,-0.0251,-0.0249,-0.0247,-0.0325,-0.0328,-0.0332,0,0,0,0,0,0,0,0,0,0,0,0,0,-0.0257,-0.0256,-0.0227,-0.0227,-0.0228,-0.0283,-0.0284,-0.0285,-0.0253,-0.0251,-0.0248,-0.0246,-0.0323,-0.0328,-0.0332,0,0,0,0,0,0,0,0,0,0,0,0,0,-0.0275,-0.0256,-0.0227,-0.0215,-0.0215,-0.0283,-0.0284,-0.0286,-0.0254,-0.0251,-0.0248,-0.0245,-0.0322,-0.0327,-0.0333,-0.0427,0,0,-0.0351,-0.0353,0,0,0,0,0,0,0,0,-0.0274,-0.0274,-0.0217,-0.0216,-0.0215,-0.0255,-0.0323,-0.0333,-0.0254,-0.0243,-0.0247,-0.0244,-0.0303,-0.031,-0.0332,-0.0431,-0.0434,-0.0351,-0.0355,-0.0357,-0.0359,0,0,0,0,0,0,0,-0.0273,-0.0273,-0.0253,-0.0217,-0.0217,-0.0264,-0.0262,-0.0326,-0.0292,-0.0244,-0.024,-0.0242,-0.0303,-0.0327,-0.0334,-0.0435,-0.0351,-0.0356,-0.036,-0.0362,-0.0595,-0.0597,0,0,0,0,0,0,-0.0252,-0.0271,-0.0251,-0.0254,-0.0234,-0.0265,-0.0263,-0.0248,-0.0291,-0.0293,-0.0244,-0.024,-0.0318,-0.0327,-0.0336,-0.0444,-0.0357,-0.0363,-0.0366,-0.0592,-0.0595,-0.0598,0,0,0,0,0,0,-0.0253,-0.025,-0.0249,-0.0262,-0.0265,-0.0266,-0.025,-0.0251,-0.0266,-0.029,-0.0293,-0.0256,-0.0316,-0.0328,-0.04,-0.0447,-0.0365,-0.0371,-0.0589,-0.0593,-0.0597,-0.0664,0,0,0,0,0,0,-0.0253,-0.0249,-0.0263,-0.026,-0.0263,-0.0291,-0.0253,-0.0254,-0.0269,-0.0264,-0.0303,-0.0307,-0.0315,-0.0391,-0.0406,-0.0453,-0.0375,-0.0585,-0.0591,-0.0595,-0.0658,-0.067,-0.0679,0,0,0,0,0,-0.0254,-0.0278,-0.0262,-0.0262,-0.027,-0.0292,-0.03,-0.0294,-0.0273,-0.0295,-0.0321,-0.0305,-0.0433,-0.0399,-0.0415,-0.0465,-0.0583,-0.0589,-0.0595,-0.0653,-0.0667,-0.0679,0,0,0,0,0,0,-0.0293,-0.0276,-0.0259,-0.0274,-0.0281,-0.0285,-0.032,-0.0304,-0.0345,-0.0344,-0.0352,-0.0361,-0.0433,-0.0452,-0.0414,-0.0547,-0.0502,-0.0512,-0.0541,-0.0554,-0.0565,-0.0498,-0.038,0,0,0,0,0,-0.0308,-0.0326,-0.0305,-0.0324,-0.0328,-0.0326,-0.0343,-0.033,-0.0351,-0.0364,-0.04,-0.0439,-0.0478,-0.0513,-0.0555,-0.0649,-0.0622,-0.0688,-0.0699,-0.0708,-0.0666,-0.0688,-0.0695,-0.0618,-0.0618,-0.0618,0,0,-0.0314,-0.0326,-0.0324,-0.0337,-0.0347,-0.034,-0.033,-0.0355,-0.0355,-0.0373,-0.0431,-0.0479,-0.0508,-0.0593,-0.0629,-0.0614,-0.0724,-0.0716,-0.0723,-0.0675,-0.0695,-0.0702,-0.0708,-0.0622,-0.0621,-0.0621,0,0,-0.0319,-0.0358,-0.0345,-0.0368,-0.0384,-0.0389,-0.0389,-0.0407,-0.0427,-0.0496,-0.0493,-0.0571,-0.0658,-0.0686,-0.0705,-0.0807,-0.077,-0.083,-0.0846,-0.087,-0.0875,-0.0879,-0.0878,-0.0881,-0.0848,-0.0848,-0.0848,0,-0.0311,-0.0295,-0.0353,-0.0355,-0.0354,-0.0397,-0.0359,-0.0414,-0.046,-0.0472,-0.0518,-0.0632,-0.0694,-0.0738,-0.0785,-0.0829,-0.0815,-0.0794,-0.088,-0.0883,-0.0886,-0.0883,-0.0886,-0.0852,-0.0851,-0.0851,-0.085,0,-0.0271,-0.0282,-0.0297,-0.0293,-0.0325,-0.0323,-0.0368,-0.0424,-0.0473,-0.05,-0.0588,-0.0703,-0.0758,-0.0817,-0.0841,-0.0895,-0.087,-0.0879,-0.0836,-0.0897,-0.0892,-0.0893,-0.0857,-0.0856,-0.0855,-0.0854,0,0,-0.0143,-0.0226,-0.0223,-0.0221,-0.028,-0.0288,-0.034,-0.0353,-0.0367,-0.0502,-0.052,-0.0676,-0.0749,-0.0775,-0.0847,-0.0893,-0.0959,-0.0902,-0.0902,-0.0879,-0.0981,-0.0925,-0.092,-0.0976,-0.0977,-0.0977,-0.0977,0,-0.0052,-0.0038,-0.0098,-0.0086,-0.0078,-0.0163,-0.0203,-0.0261,-0.0345,-0.0417,-0.0549,-0.0619,-0.0731,-0.0786,-0.0862,-0.0922,-0.096,-0.0954,-0.0941,-0.094,-0.0865,-0.0919,-0.0978,-0.0977,-0.0978,-0.0978,-0.0978,0,0.0048,0.0036,0.0082,0.0018,0.0022,0.0012,-0.0043,-0.0089,-0.0212,-0.0292,-0.041,-0.0509,-0.0641,-0.0726,-0.0864,-0.0852,-0.0913,-0.0959,-0.096,-0.0866,-0.0885,-0.0901,-0.0979,-0.0979,-0.0979,-0.0979,-0.0979,0,0.0165,0.016,0.0201,0.0182,0.0109,0.011,0.0073,-0.0033,-0.0079,-0.021,-0.0261,-0.0424,-0.0523,-0.0635,-0.0807,-0.0827,-0.091,-0.0955,-0.0943,-0.0939,-0.0956,-0.0951,-0.0999,-0.0999,-0.0999,-0.0999,-0.0999,0,0.0261,0.0282,0.0257,0.0259,0.0289,0.0206,0.0202,0.012,0.0023,-0.0028,-0.0198,-0.0275,-0.0502,-0.0607,-0.0747,-0.0854,-0.088,-0.0922,-0.0933,-0.0991,-0.099,-0.0957,-0.0953,-0.0999,-0.0999,-0.0999,-0.0999,0,0.0316,0.0318,0.0339,0.0324,0.0323,0.0324,0.0266,0.0239,0.015,0.0076,0.0036,-0.0156,-0.031,-0.0491,-0.0664,-0.076,-0.0866,-0.0878,-0.0898,-0.0914,-0.0888,-0.0888,-0.0868,-0.0866,-0.0864,-0.0863,-0.0862,0,0.0326,0.0352,0.0378,0.0392,0.038,0.0379,0.0358,0.0284,0.0246,0.0139,0.0103,-0.003,-0.018,-0.0368,-0.0569,-0.0769,-0.08,-0.0827,-0.089,-0.0861,-0.0874,-0.0876,-0.0878,-0.0859,-0.0858,-0.0858,-0.0857,0,0.0331,0.0355,0.0371,0.0411,0.0422,0.0423,0.04,0.0394,0.0301,0.0258,0.0158,0.0026,-0.0121,-0.0339,-0.0472,-0.0631,-0.0808,-0.081,-0.0816,-0.0876,-0.0849,-0.0865,-0.0869,-0.0851,-0.0852,-0.0853,-0.0853,0,0.0322,0.0337,0.0374,0.0402,0.0432,0.0437,0.0431,0.0392,0.036,0.026,0.0236,0.0052,-0.0062,-0.0263,-0.0405,-0.0539,-0.0591,-0.0628,-0.0645,-0.0653,-0.0606,-0.0543,-0.0442,0,0,0,0,0,0.0298,0.0316,0.0349,0.0384,0.0424,0.0436,0.0433,0.042,0.038,0.0326,0.0281,0.0137,-0.0082,-0.0191,-0.0314,-0.0391,-0.062,-0.0536,-0.0673,-0.0818,-0.0825,-0.0804,0,0,0,0,0,0,0.0276,0.031,0.0337,0.037,0.0395,0.0418,0.0421,0.0397,0.0363,0.0318,0.0196,0.014,-0.0085,-0.001,-0.0307,-0.035,-0.0444,-0.0645,-0.0647,-0.0814,-0.082,-0.0826,-0.0806,0,0,0,0,0]}]]